Content
SEND FEEDBACK

Canada Flag

MONTREAL, QUEBEC


Home > North America > Canada > Quebec
Elevation: 35 meters     Latitude: 45 28N     Longitude: 073 45W

WEATHER
 
SELECT A DAY
Number of Records: 218,660;   Date Range: 1/1/95 - 3/22/16
 
SHARE

PRINT THIS DATA

[ ← Previous Day ]
WEATHER ALMANAC - 15 MARCH, 2013
[ Next Day → ]
[ °F ]   °C
Weather ElementAverageHighLow
Temperature-5.1 °C-2 °C (6:00 pm)-9 °C (1:00 am)
Dewpoint-9.6 °C-5 °C (4:00 pm)-15.6 °C (2:00 am)
Humidity70.9 %93 % (9:00 pm)46 % (2:00 am)
Barometer1006.8 hPa1013.9 hPa (1:00 am)1002.4 hPa (5:20 pm)
Wind Speed9.7 km/h16.7 km/h (5:00 am)
Weather ElementAverage
Visibility22.4 km
Wind DirectionSSW (210.8 °)

Weather ElementTotal
Precipitation---
Heating Degree Days23.8 (Base 18.3)
Averaged from 36 records on 15 March, 2013
WEATHER CONDITIONS BREAKOUT
WIND DIRECTION BREAKOUT
WEATHER BY HOUR - 15 MARCH, 2013
[ °F ]   °C
Local TimeTemperatureDewpointHumidityBarometerVisibilityWind DirectionWind SpeedGust SpeedPrecipitationEventsConditions
1:00 AM-9 °C-15 °C62 %1013.9 hPa24.1 kmWest (270°)11.1 km/hPartly Cloudy
2:00 AM-8.9 °C-15.6 °C46 %1013.9 hPa24.1 kmWest (270°)14.8 km/h
2:00 AM-9 °C-15 °C62 %1013.9 hPa24.1 kmWest (270°)13 km/hClear
3:00 AM-9 °C-15 °C62 %1013.5 hPa24.1 kmWSW (250°)14.8 km/hScattered Clouds
4:00 AM-9 °C-14 °C68 %1013.2 hPa24.1 kmWest (260°)13 km/hPartly Cloudy
5:00 AM-9 °C-15 °C62 %1012.5 hPa24.1 kmWSW (250°)16.7 km/hMostly Cloudy
6:00 AM-9 °C-15 °C62 %1011.9 hPa24.1 kmWSW (250°)13 km/hMostly Cloudy
7:00 AM-9 °C-14 °C68 %1011.5 hPa48.3 kmWSW (240°)11.1 km/hMostly Cloudy
8:00 AM-8 °C-13 °C68 %1010.5 hPa48.3 kmWSW (240°)11.1 km/hMostly Cloudy
8:00 AM-8.3 °C-13.3 °C54 %1010.5 hPa45.1 kmWSW (240°)11.1 km/hPartly Cloudy
9:00 AM-7 °C-12 °C68 %1009.8 hPa48.3 kmSW (230°)11.1 km/hMostly Cloudy
10:00 AM-6 °C-13 °C58 %1008.5 hPa48.3 kmSSW (210°)13 km/hOvercast
11:00 AM-4 °C-14 °C46 %1007.1 hPa48.3 kmSouth (190°)11.1 km/hMostly Cloudy
12:00 PM-3 °C-13 °C47 %1006.1 hPa24.1 kmSSW (200°)9.3 km/hOvercast
12:48 PM-3 °C-12 °C51 %1005.1 hPa16.1 kmSouth (190°)13 km/hSnowLight Snow
1:00 PM-3 °C-11 °C55 %1004.7 hPa16.1 kmSSW (200°)11.1 km/hSnowLight Snow
2:00 PM-3.3 °C-10 °C47 %1003.7 hPa11.3 kmSW (220°)3.7 km/hSnowLight Snow
2:00 PM-3 °C-10 °C59 %1003.7 hPa12.9 kmSSW (210°)5.6 km/hSnowLight Snow
2:32 PM-3 °C-8 °C69 %1003 hPa6.4 kmSSW (210°)7.4 km/hSnowLight Snow
2:48 PM-4 °C-7 °C80 %1003 hPa2.4 kmSouth (190°)11.1 km/hSnowLight Snow
3:00 PM-3 °C-6 °C80 %1003 hPa1.9 kmSSE (160°)11.1 km/hSnowLight Snow
3:16 PM-4 °C-6 °C86 %1002.7 hPa2.4 kmSE (130°)7.4 km/hSnowLight Snow
4:00 PM-3 °C-5 °C86 %1003 hPa2.4 kmCalmSnowLight Snow
4:11 PM-3 °C-5 °C86 %1002.7 hPa4.8 kmSE (130°)5.6 km/hSnowLight Snow
4:46 PM-3 °C-5 °C86 %1002.7 hPa8 kmSouth (170°)3.7 km/hSnowLight Snow
5:00 PM-3 °C-5 °C86 %1002.7 hPa9.7 kmCalmSnowLight Snow
5:20 PM-3 °C-5 °C86 %1002.4 hPa24.1 kmCalmSnowLight Snow
6:00 PM-2 °C-5 °C80 %1002.7 hPa24.1 kmWest (280°)9.3 km/hMostly Cloudy
7:00 PM-3 °C-6 °C80 %1003.7 hPa24.1 kmWest (270°)11.1 km/hScattered Clouds
8:00 PM-3.9 °C-6.1 °C77 %1004.7 hPa24.1 kmWest (270°)7.4 km/hPartly Cloudy
8:00 PM-4 °C-6 °C86 %1004.7 hPa24.1 kmWest (260°)7.4 km/hMostly Cloudy
8:39 PM-3 °C-6 °C80 %1005.1 hPa16.1 kmWest (260°)14.8 km/hSnowLight Snow
9:00 PM-4 °C-5 °C93 %1005.1 hPa24.1 kmWest (270°)9.3 km/hSnowLight Snow
9:12 PM-4 °C-5 °C93 %1005.4 hPa24.1 kmWest (260°)11.1 km/hScattered Clouds
10:00 PM-5 °C-6 °C93 %1005.8 hPa24.1 kmWSW (250°)9.3 km/hPartly Cloudy
11:00 PM-4 °C-7 °C80 %1006.8 hPa24.1 kmWNW (290°)11.1 km/hPartly Cloudy
Hourly data recorded from CYUL, located 0 kilometers away from Montreal, Quebec




STORIES FROM OUR PARTNERS